Hourly Data Report for October 01, 2020

SAINT JOHN A
NEW BRUNSWICK
Current Station Operator: NAVCAN

45°18'58.000" N
65°53'24.000" W
108.80 m
8104901
71609
YSJ

Download Data

Hourly Data (October 2020)
Hourly Data Report for October 1, 2020
TIME
LST
Temp Definition
°C
Dew Point Definition
°C
Rel Hum Definition
%
Precip. Amount Definition
mm

Wind Dir Definition
10's deg

Wind Spd Definition
km/h
Visibility Definition
km
Stn Press Definition
kPa
Hmdx Definition


Wind Chill Definition


Weather Definition


00:00 13.0 13.0 100 LegendMM 19 12 1.2 99.61     Fog
01:00 13.0 13.0 100 LegendMM 20 8 1.2 99.66     Fog
02:00 12.5 12.5 100 LegendMM 18 12 2.4 99.71     Fog
03:00 11.4 11.4 100 LegendMM 19 5 4.8 99.70     Fog
04:00 9.5 9.5 100 LegendMM 36 3 16.1 99.72     LegendNANA
05:00 9.6 9.6 100 LegendMM 19 8 16.1 99.77     Mainly Clear
06:00 9.0 9.0 100 LegendMM 16 4 16.1 99.81     LegendNANA
07:00 8.7 8.7 100 LegendMM 36 1 24.1 99.84     LegendNANA
08:00 12.8 12.8 100 LegendMM 18 11 24.1 99.87     Mainly Clear
09:00 14.9 13.1 89 LegendMM 20 27 24.1 99.90     LegendNANA
10:00 16.0 13.5 85 LegendMM 21 24 24.1 99.92     LegendNANA
11:00 17.3 13.5 78 LegendMM 21 29 24.1 99.92     Mainly Clear
12:00 17.4 13.7 79 LegendMM 20 35 24.1 99.92     LegendNANA
13:00 17.7 13.6 77 LegendMM 20 36 24.1 99.90     LegendNANA
14:00 17.9 13.3 74 LegendMM 21 37 24.1 99.94     Clear
15:00 17.9 13.5 75 LegendMM 21 30 19.3 99.97     LegendNANA
16:00 16.9 13.3 79 LegendMM 21 30 19.3 99.99     LegendNANA
17:00 15.5 13.4 87 LegendMM 20 23 19.3 100.02     Mainly Clear
18:00 13.9 13.4 97 LegendMM 21 22 16.1 100.07     LegendNANA
19:00 13.7 13.5 99 LegendMM 21 21 16.1 100.12     LegendNANA
20:00 13.4 13.2 99 LegendMM 19 11 16.1 100.17     Mostly Cloudy
21:00 13.2 13.2 100 LegendMM 19 11 16.1 100.19     LegendNANA
22:00 14.1 14.0 99 LegendMM 21 17 16.1 100.21     LegendNANA
23:00 14.2 13.9 98 LegendMM 21 21 4.8 100.23     Fog

Notes on Data Quality.

Legend

  • E = Estimated
  • M = Missing
  • NA = Not Available*
  • [empty] = Indicates an unobserved value
Date modified: